Satellite: NCUBE2
Catalog number: 28897
Epoch time:      07262.24205220
Element set:    0356
Inclination:      098.1188 deg
RA of node:       157.1571 deg
Eccentricity:    0.0017109
Arg of perigee:   176.7218 deg
Mean anomaly:     183.4089 deg
Mean motion:   14.59748709 rev/day
Decay rate:        8.5e-07 rev/day^2
Epoch rev:           09309
Checksum:              327

Satellite: FCAL
Catalog number: 29667
Epoch time:      07263.55700620
Element set:     336
Inclination:      051.6329 deg
RA of node:       312.9392 deg
Eccentricity:    0.0013510
Arg of perigee:   004.0557 deg
Mean anomaly:     356.0592 deg
Mean motion:   15.91501288 rev/day
Decay rate:     1.3672e-04 rev/day^2
Epoch rev:            4317
Checksum:              282

Satellite: FALCON
Catalog number: 30776
Epoch time:      07262.66365084
Element set:    0154
Inclination:      035.4345 deg
RA of node:       359.9121 deg
Eccentricity:    0.0001161
Arg of perigee:   249.2352 deg
Mean anomaly:     110.8239 deg
Mean motion:   15.02765232 rev/day
Decay rate:       1.53e-06 rev/day^2
Epoch rev:           02927
Checksum:              273

Satellite: MAST
Catalog number: 31126
Epoch time:      07263.74908655
Element set:     138
Inclination:      098.0740 deg
RA of node:       333.4898 deg
Eccentricity:    0.0095779
Arg of perigee:   089.6515 deg
Mean anomaly:     271.5620 deg
Mean motion:   14.53365219 rev/day
Decay rate:       3.44e-06 rev/day^2
Epoch rev:            2273
Checksum:              320

Satellite: CAPE1
Catalog number: 31130
Epoch time:      07262.66842284
Element set:    0121
Inclination:      098.0750 deg
RA of node:       332.0850 deg
Eccentricity:    0.0104105
Arg of perigee:   093.9962 deg
Mean anomaly:     267.3140 deg
Mean motion:   14.51885248 rev/day
Decay rate:        9.6e-07 rev/day^2
Epoch rev:           02232
Checksum:              272

/EX





More information about the Keps mailing list